GW0154 Weather Reports


time (UTC)temp
C
wind
direction
speed
KPH
gust
KPH
rain 1hr
cm
rain 24hr
cm
rain mn
cm
humidity
%
barometer
mb
20260507170104 17 284 0.0 0.0 0.00 0.00 0.00 87 1017.7
20260507165559 17 287 0.0 0.0 0.00 0.00 0.00 87 1017.7
20260507165056 17 262 0.0 0.0 0.00 0.00 0.00 88 1017.7
20260507164552 17 289 0.0 0.0 0.00 0.00 0.00 88 1017.5
20260507164049 17 284 0.0 0.0 0.00 0.00 0.00 87 1017.5
20260507163547 17 294 0.0 0.0 0.00 0.00 0.00 87 1017.4
20260507163044 17 247 0.0 0.0 0.00 0.00 0.00 87 1017.4
20260507162539 17 288 0.0 0.0 0.00 0.00 0.00 87 1017.3
20260507162036 16 285 0.0 0.0 0.00 0.00 0.00 87 1017.1
20260507161532 16 285 0.0 0.0 0.00 0.00 0.00 87 1017.2
20260507161029 16 318 0.0 0.0 0.00 0.00 0.00 87 1016.9
20260507160525 17 331 0.0 0.0 0.00 0.00 0.00 88 1017.0
20260507160022 17 297 0.0 0.0 0.00 0.00 0.00 88 1017.0
20260507155517 17 300 0.0 0.0 0.00 0.00 0.00 88 1016.9
20260507155014 17 341 0.0 1.6 0.00 0.00 0.00 88 1016.7
20260507154511 17 343 0.0 3.2 0.00 0.00 0.00 87 1016.9
20260507154009 17 338 3.2 3.2 0.00 0.00 0.00 87 1016.8
20260507153505 17 312 0.0 3.2 0.00 0.00 0.00 87 1016.7
20260507153001 17 347 0.0 0.0 0.00 0.00 0.00 88 1016.8
20260507152457 17 305 0.0 0.0 0.00 0.00 0.00 89 1017.0
20260507151954 17 324 0.0 0.0 0.00 0.00 0.00 90 1016.8
20260507151450 17 331 0.0 0.0 0.00 0.00 0.00 90 1016.8
20260507150947 17 323 0.0 0.0 0.00 0.00 0.00 90 1016.9
20260507150444 17 306 0.0 0.0 0.00 0.00 0.00 90 1016.9
20260507145940 17 328 0.0 0.0 0.00 0.00 0.00 90 1016.6
20260507145435 16 316 0.0 0.0 0.00 0.00 0.00 91 1016.7
20260507144933 16 321 0.0 0.0 0.00 0.00 0.00 91 1016.8
20260507144430 16 311 0.0 1.6 0.00 0.00 0.00 91 1016.8
20260507143927 16 356 1.6 3.2 0.00 0.00 0.00 91 1016.9
20260507143424 16 298 0.0 1.6 0.00 0.00 0.00 92 1017.0
20260507142921 16 298 0.0 1.6 0.00 0.00 0.00 92 1017.0
20260507142416 16 302 0.0 1.6 0.00 0.00 0.00 92 1016.8
20260507141914 16 285 0.0 0.0 0.00 0.00 0.00 92 1016.9
20260507141410 17 277 0.0 0.0 0.00 0.00 0.00 92 1016.8
20260507140907 17 284 0.0 0.0 0.00 0.00 0.00 92 1016.7
20260507140403 17 293 0.0 0.0 0.00 0.00 0.00 91 1016.7
20260507135901 16 287 0.0 0.0 0.00 0.00 0.00 91 1016.8
20260507135357 16 292 0.0 0.0 0.00 0.00 0.00 91 1016.8
20260507134855 17 316 0.0 0.0 0.00 0.00 0.00 91 1016.7
20260507134351 17 299 0.0 0.0 0.00 0.00 0.00 92 1016.6
20260507133847 17 289 0.0 0.0 0.00 0.00 0.00 92 1016.7
20260507133343 17 313 0.0 0.0 0.00 0.00 0.00 92 1016.8
20260507132842 17 295 0.0 0.0 0.00 0.00 0.00 92 1016.9
20260507132338 17 312 0.0 0.0 0.00 0.00 0.00 93 1016.6
20260507131835 17 292 0.0 0.0 0.00 0.00 0.00 93 1016.8
20260507131332 17 274 0.0 0.0 0.00 0.00 0.00 93 1016.9
20260507130829 17 289 0.0 0.0 0.00 0.00 0.00 93 1016.9
20260507130325 17 287 0.0 0.0 0.00 0.00 0.00 93 1016.9
20260507125825 17 278 0.0 0.0 0.00 0.00 0.00 93 1016.9
20260507125322 17 305 0.0 0.0 0.00 0.00 0.00 93 1016.8
20260507124819 17 289 0.0 0.0 0.00 0.00 0.00 93 1016.9
20260507124315 17 289 0.0 0.0 0.00 0.00 0.00 93 1016.9
20260507123814 17 308 0.0 0.0 0.00 0.00 0.00 93 1017.0
20260507123311 17 316 0.0 0.0 0.00 0.00 0.00 93 1017.0
20260507122807 17 292 0.0 0.0 0.00 0.00 0.00 93 1017.0
20260507122306 17 299 0.0 0.0 0.00 0.00 0.00 93 1016.9
20260507121758 17 286 0.0 0.0 0.00 0.00 0.00 93 1017.1
20260507121254 17 306 0.0 0.0 0.00 0.00 0.00 92 1017.1
20260507120750 17 273 0.0 0.0 0.00 0.00 0.00 92 1016.8
20260507120247 17 288 0.0 0.0 0.00 0.00 0.00 91 1017.0
20260507115743 17 313 0.0 0.0 0.00 0.00 0.00 91 1017.0
20260507115239 17 283 0.0 0.0 0.00 0.00 0.00 91 1017.1
20260507114735 17 295 0.0 0.0 0.00 0.00 0.00 90 1017.1
20260507114233 17 268 0.0 0.0 0.00 0.00 0.00 90 1017.1
20260507113730 18 284 0.0 1.6 0.00 0.00 0.00 89 1017.2
20260507113227 18 309 0.0 1.6 0.00 0.00 0.00 89 1017.2
20260507112724 18 301 0.0 1.6 0.00 0.00 0.00 89 1017.2
20260507112221 18 305 0.0 0.0 0.00 0.00 0.00 89 1017.4
20260507111719 18 308 1.6 1.6 0.00 0.00 0.00 90 1017.3
20260507111216 18 320 0.0 1.6 0.00 0.00 0.00 90 1017.6
20260507110711 18 299 0.0 0.0 0.00 0.00 0.00 90 1017.6
20260507110208 18 285 0.0 0.0 0.00 0.00 0.00 91 1017.7
20260507105705 17 327 0.0 0.0 0.00 0.00 0.00 91 1017.7
20260507105201 17 295 0.0 1.6 0.00 0.00 0.00 92 1017.7
20260507104658 17 292 0.0 0.0 0.00 0.00 0.00 92 1017.6
20260507104154 17 300 0.0 0.0 0.00 0.00 0.00 92 1017.8
20260507103651 17 285 0.0 0.0 0.00 0.00 0.00 92 1018.1
20260507103148 17 278 0.0 0.0 0.00 0.00 0.00 92 1017.8
20260507102644 17 271 0.0 0.0 0.00 0.00 0.00 92 1017.9
20260507102140 17 281 0.0 0.0 0.00 0.00 0.00 92 1018.2
20260507101636 17 286 0.0 0.0 0.00 0.00 0.00 92 1018.3
20260507101132 17 292 0.0 0.0 0.00 0.00 0.00 92 1017.9
20260507100630 18 251 0.0 0.0 0.00 0.00 0.00 92 1018.4
20260507100128 18 279 0.0 0.0 0.00 0.00 0.00 92 1018.2
20260507095626 18 91 0.0 0.0 0.00 0.00 0.00 92 1018.4
20260507095122 18 280 0.0 1.6 0.00 0.00 0.00 92 1018.2
20260507094618 18 278 0.0 0.0 0.00 0.00 0.00 92 1018.1
20260507094115 18 279 0.0 0.0 0.00 0.00 0.00 92 1018.4
20260507093612 18 266 0.0 0.0 0.00 0.00 0.00 92 1018.2
20260507093111 18 291 0.0 0.0 0.00 0.00 0.00 92 1018.3
20260507092607 18 290 0.0 0.0 0.00 0.00 0.00 92 1018.4
20260507092104 18 286 0.0 0.0 0.00 0.00 0.00 92 1018.3
20260507091601 18 288 0.0 0.0 0.00 0.00 0.00 92 1018.5
20260507091057 18 286 0.0 0.0 0.00 0.00 0.00 92 1018.3
20260507090552 18 294 0.0 0.0 0.00 0.00 0.00 93 1018.3
20260507090050 18 302 0.0 0.0 0.00 0.00 0.00 93 1018.5
20260507085547 18 283 0.0 0.0 0.00 0.00 0.00 93 1018.6
20260507085043 18 274 0.0 0.0 0.00 0.00 0.00 93 1018.6
20260507084540 18 293 0.0 0.0 0.00 0.00 0.00 93 1018.7
20260507084037 18 292 0.0 0.0 0.00 0.00 0.00 93 1018.6
20260507083533 18 334 0.0 0.0 0.00 0.00 0.00 93 1018.6
20260507083031 18 254 0.0 0.0 0.00 0.00 0.00 93 1018.4
20260507082526 19 268 0.0 0.0 0.00 0.00 0.00 92 1018.6
20260507082023 19 268 0.0 0.0 0.00 0.00 0.00 91 1018.3
20260507081519 20 291 0.0 0.0 0.00 0.00 0.00 91 1018.4
20260507081017 20 311 0.0 0.0 0.00 0.00 0.00 90 1018.4
20260507080512 19 292 0.0 0.0 0.00 0.00 0.00 90 1018.4
20260507080009 19 282 0.0 0.0 0.00 0.00 0.00 89 1018.4
20260507075504 19 281 0.0 0.0 0.00 0.00 0.00 88 1018.5
20260507075001 20 279 0.0 0.0 0.00 0.00 0.00 87 1018.4
20260507074457 20 281 0.0 0.0 0.00 0.00 0.00 86 1018.4
20260507073956 20 279 0.0 0.0 0.00 0.00 0.00 86 1018.5
20260507073451 20 278 0.0 0.0 0.00 0.00 0.00 86 1018.3
20260507072948 20 290 0.0 0.0 0.00 0.00 0.00 86 1018.3
20260507072446 20 297 0.0 0.0 0.00 0.00 0.00 87 1018.2
20260507071943 20 290 0.0 0.0 0.00 0.00 0.00 86 1018.3
20260507071440 20 265 0.0 0.0 0.00 0.00 0.00 87 1018.1
20260507070937 20 271 0.0 0.0 0.00 0.00 0.00 89 1017.8
20260507070434 20 273 0.0 0.0 0.00 0.00 0.00 89 1017.8
20260507065931 20 202 0.0 0.0 0.00 0.00 0.00 90 1017.6
20260507065427 20 250 0.0 0.0 0.00 0.00 0.00 90 1017.7
20260507064925 20 255 0.0 0.0 0.00 0.00 0.00 91 1017.9
20260507064423 20 246 0.0 0.0 0.00 0.00 0.00 91 1017.8
20260507063921 20 250 0.0 0.0 0.00 0.00 0.00 90 1017.6
20260507063417 21 259 0.0 0.0 0.00 0.00 0.00 89 1017.7
20260507062914 21 241 0.0 0.0 0.00 0.00 0.00 89 1017.4
20260507062411 20 325 0.0 0.0 0.00 0.00 0.00 90 1017.3
20260507061909 21 292 0.0 0.0 0.00 0.00 0.00 92 1017.2
20260507061407 21 255 0.0 0.0 0.00 0.00 0.00 93 1017.3
20260507060905 21 73 0.0 0.0 0.00 0.00 0.00 93 1017.0
20260507060401 21 281 0.0 0.0 0.00 0.00 0.00 94 1017.2
20260507055858 21 246 0.0 0.0 0.00 0.00 0.00 94 1017.2
20260507055353 21 260 0.0 0.0 0.00 0.00 0.00 94 1017.4
20260507054850 21 249 0.0 0.0 0.00 0.00 0.00 94 1017.2
20260507054346 21 242 0.0 0.0 0.00 0.00 0.00 94 1017.0
20260507053844 21 251 0.0 0.0 0.00 0.00 0.00 94 1017.0
20260507053341 21 247 0.0 0.0 0.00 0.00 0.00 94 1017.2
20260507052840 21 247 0.0 0.0 0.00 0.00 0.00 93 1017.0
20260507052336 21 243 0.0 0.0 0.00 0.00 0.00 93 1017.1
20260507051834 21 77 1.6 3.2 0.00 0.00 0.00 93 1017.1
20260507051331 21 201 0.0 0.0 0.00 0.00 0.00 93 1017.1
20260507050828 21 244 1.6 3.2 0.00 0.00 0.00 93 1017.0
20260507050324 21 231 1.6 3.2 0.00 0.00 0.00 93 1016.7
20260507045821 22 221 0.0 0.0 0.00 0.00 0.00 93 1016.6
20260507045318 22 247 0.0 3.2 0.00 0.00 0.00 92 1016.7
20260507044815 22 225 3.2 4.8 0.00 0.00 0.00 91 1016.6
20260507044312 22 209 3.2 3.2 0.00 0.00 0.00 90 1016.6
20260507043808 22 220 4.8 9.7 0.00 0.00 0.00 89 1016.4
20260507043304 22 231 3.2 4.8 0.00 0.00 0.00 89 1016.4
20260507042801 22 249 1.6 3.2 0.00 0.00 0.00 89 1016.2
20260507042256 23 245 1.6 8.0 0.00 0.00 0.00 87 1016.3
20260507041754 23 238 3.2 9.7 0.00 0.00 0.00 87 1016.3
20260507041250 23 244 3.2 4.8 0.00 0.00 0.00 86 1016.0
20260507040747 23 245 1.6 4.8 0.00 0.00 0.00 86 1016.0
20260507040243 23 237 4.8 9.7 0.00 0.00 0.00 86 1015.9
20260507035739 23 204 1.6 4.8 0.00 0.00 0.00 85 1015.9
20260507035235 23 200 6.4 8.0 0.00 0.00 0.00 84 1015.6
20260507034733 23 227 1.6 4.8 0.00 0.00 0.00 85 1015.9
20260507034229 23 249 3.2 3.2 0.00 0.00 0.00 84 1015.8
20260507033728 23 260 1.6 4.8 0.00 0.00 0.00 84 1015.9
20260507033225 24 211 8.0 11.3 0.00 0.00 0.00 84 1015.6
20260507032722 24 173 4.8 8.0 0.00 0.00 0.00 84 1015.6
20260507032218 24 212 4.8 8.0 0.00 0.00 0.00 85 1015.5
20260507031715 25 241 4.8 4.8 0.00 0.00 0.00 82 1015.5
20260507031212 25 257 3.2 4.8 0.00 0.00 0.00 80 1015.6
20260507030708 25 250 4.8 8.0 0.00 0.00 0.00 79 1015.8
20260507030206 25 321 1.6 1.6 0.00 0.00 0.00 78 1015.6
20260507025703 25 246 1.6 8.0 0.00 0.00 0.00 77 1015.4
20260507025200 25 257 6.4 9.7 0.00 0.00 0.00 77 1015.4
20260507024658 25 236 1.6 8.0 0.00 0.00 0.00 76 1015.3
20260507024155 25 209 4.8 4.8 0.00 0.00 0.00 78 1015.3
20260507023650 25 219 4.8 8.0 0.00 0.00 0.00 79 1015.3
20260507023148 25 240 4.8 8.0 0.00 0.00 0.00 78 1015.3
20260507022645 25 227 4.8 4.8 0.00 0.00 0.00 79 1015.2
20260507022140 25 197 6.4 8.0 0.00 0.00 0.00 80 1015.3
20260507021637 25 250 4.8 8.0 0.00 0.00 0.00 80 1015.4
20260507021132 25 250 3.2 4.8 0.00 0.00 0.00 78 1015.3
20260507020631 26 272 4.8 9.7 0.00 0.00 0.00 77 1015.5
20260507020127 26 276 1.6 8.0 0.00 0.00 0.00 78 1015.5
20260507015625 26 248 8.0 9.7 0.00 0.00 0.00 76 1015.3
20260507015122 26 260 6.4 11.3 0.00 0.00 0.00 79 1015.2
20260507014619 25 240 3.2 8.0 0.00 0.00 0.00 81 1015.4
20260507014115 26 282 4.8 11.3 0.00 0.00 0.00 80 1015.3
20260507013612 25 276 1.6 11.3 0.00 0.00 0.00 81 1015.5
20260507013109 25 256 3.2 4.8 0.00 0.00 0.00 83 1015.4
20260507012606 25 242 1.6 4.8 0.00 0.00 0.00 82 1015.3
20260507012101 25 235 4.8 8.0 0.00 0.00 0.00 84 1015.5
20260507011600 25 212 3.2 9.7 0.00 0.00 0.00 85 1015.4
20260507011055 24 222 4.8 4.8 0.00 0.00 0.00 85 1015.5
20260507010550 24 334 4.8 4.8 0.00 0.00 0.00 86 1015.5
20260507010046 24 345 3.2 8.0 0.00 0.00 0.00 85 1015.5
20260507005544 25 294 4.8 8.0 0.00 0.00 0.00 83 1015.8
20260507005040 25 339 4.8 8.0 0.00 0.00 0.00 80 1015.8
20260507004538 24 254 1.6 4.8 0.00 0.00 0.00 82 1015.9
20260507004035 23 227 3.2 3.2 0.00 0.00 0.00 84 1015.9
20260507003530 23 339 4.8 4.8 0.00 0.00 0.00 84 1016.2
20260507003020 23 287 4.8 9.7 0.00 0.00 0.00 85 1016.1
20260507002517 24 212 4.8 9.7 0.00 0.00 0.00 85 1016.0
20260507002013 23 214 3.2 4.8 0.00 0.00 0.00 85 1016.1
20260507001509 23 241 4.8 8.0 0.00 0.00 0.00 85 1016.2
20260507001007 23 226 4.8 8.0 0.00 0.00 0.00 86 1016.1
20260507000503 23 239 1.6 9.7 0.00 0.00 0.00 87 1016.1
20260506235958 24 201 4.8 8.0 0.00 0.00 0.00 87 1016.4
20260506235456 25 261 4.8 8.0 0.00 0.00 0.00 85 1016.1
20260506234952 25 237 3.2 4.8 0.00 0.00 0.00 84 1016.3
20260506234449 24 250 4.8 11.3 0.00 0.00 0.00 86 1016.3
20260506233947 25 229 4.8 9.7 0.00 0.00 0.00 81 1016.6
20260506233443 25 325 3.2 8.0 0.00 0.00 0.00 82 1016.4
20260506232940 25 275 4.8 4.8 0.00 0.00 0.00 82 1016.5
20260506232436 25 209 3.2 8.0 0.00 0.00 0.00 80 1016.5
20260506231932 26 269 3.2 4.8 0.00 0.00 0.00 78 1016.6
20260506231430 25 262 0.0 0.0 0.00 0.00 0.00 80 1016.5
20260506230926 25 225 4.8 8.0 0.00 0.00 0.00 83 1016.9
20260506230423 24 263 0.0 0.0 0.00 0.00 0.00 83 1017.0
20260506225920 23 219 3.2 4.8 0.00 0.00 0.00 84 1017.0
20260506225417 23 274 1.6 4.8 0.00 0.00 0.00 83 1017.0
20260506224914 23 253 0.0 3.2 0.00 0.00 0.00 83 1017.0
20260506224411 23 246 4.8 8.0 0.00 0.00 0.00 84 1016.9
20260506223907 23 251 1.6 4.8 0.00 0.00 0.00 84 1017.1
20260506223403 23 238 4.8 8.0 0.00 0.00 0.00 84 1016.9
20260506222900 23 211 4.8 9.7 0.00 0.00 0.00 82 1017.2
20260506222356 23 225 4.8 4.8 0.00 0.00 0.00 85 1016.9
20260506221854 23 218 4.8 9.7 0.00 0.00 0.00 85 1016.8
20260506221351 24 254 4.8 4.8 0.00 0.00 0.00 84 1017.0
20260506220848 25 222 4.8 12.9 0.00 0.00 0.00 83 1016.9
20260506220343 25 195 6.4 8.0 0.00 0.00 0.00 79 1016.9
20260506215841 26 241 9.7 12.9 0.00 0.00 0.00 78 1016.6
20260506215336 26 4 3.2 4.8 0.00 0.00 0.00 76 1016.6
20260506214832 26 207 4.8 8.0 0.00 0.00 0.00 75 1016.8
20260506214329 26 234 4.8 9.7 0.00 0.00 0.00 76 1016.9
20260506213828 25 216 4.8 8.0 0.00 0.00 0.00 78 1016.8
20260506213325 26 205 4.8 9.7 0.00 0.00 0.00 76 1017.1
20260506212822 25 247 3.2 9.7 0.00 0.00 0.00 76 1017.3
20260506212317 26 224 3.2 4.8 0.00 0.00 0.00 77 1017.2
20260506211813 25 237 3.2 8.0 0.00 0.00 0.00 77 1017.3
20260506211309 25 212 3.2 4.8 0.00 0.00 0.00 78 1017.3
20260506210807 25 180 4.8 9.7 0.00 0.00 0.00 78 1017.5
20260506210303 25 197 6.4 9.7 0.00 0.00 0.00 79 1017.5
20260506205800 25 213 8.0 11.3 0.00 0.00 0.00 79 1017.5
20260506205256 25 259 6.4 9.7 0.00 0.00 0.00 79 1017.4
20260506204753 24 212 4.8 9.7 0.00 0.00 0.00 81 1017.1
20260506204251 24 194 3.2 8.0 0.00 0.00 0.00 84 1017.4
20260506203748 24 230 1.6 9.7 0.00 0.00 0.00 85 1017.4
20260506203245 24 231 3.2 9.7 0.00 0.00 0.00 85 1017.4
20260506202742 24 266 4.8 11.3 0.00 0.00 0.00 83 1017.3
20260506202239 25 215 4.8 9.7 0.00 0.00 0.00 82 1017.5
20260506201736 24 222 4.8 8.0 0.00 0.00 0.00 80 1017.3
20260506201232 24 200 8.0 11.3 0.00 0.00 0.00 81 1017.3
20260506200729 24 261 4.8 9.7 0.00 0.00 0.00 82 1017.5
20260506200226 25 231 6.4 11.3 0.00 0.00 0.00 82 1017.5
20260506195722 25 190 6.4 9.7 0.00 0.00 0.00 81 1017.5
20260506195219 25 248 4.8 9.7 0.00 0.00 0.00 81 1017.2
20260506194716 25 237 4.8 8.0 0.00 0.00 0.00 79 1017.1
20260506194212 25 252 3.2 4.8 0.00 0.00 0.00 76 1017.1
20260506193711 25 190 4.8 8.0 0.00 0.00 0.00 75 1017.2
20260506193207 25 216 4.8 9.7 0.00 0.00 0.00 76 1017.3
20260506192704 25 229 3.2 11.3 0.00 0.00 0.00 77 1017.1
20260506192200 25 245 0.0 0.0 0.00 0.00 0.00 77 1016.8
20260506191657 25 216 0.0 3.2 0.00 0.00 0.00 78 1016.9
20260506191153 24 225 4.8 8.0 0.00 0.00 0.00 77 1016.8
20260506190650 24 212 6.4 9.7 0.00 0.00 0.00 77 1017.2
20260506190147 23 205 8.0 9.7 0.00 0.00 0.00 79 1017.3
20260506185644 23 210 3.2 3.2 0.00 0.00 0.00 79 1017.1
20260506185140 23 243 3.2 4.8 0.00 0.00 0.00 79 1017.3
20260506184638 23 254 1.6 4.8 0.00 0.00 0.00 79 1017.4
20260506184135 23 236 0.0 0.0 0.00 0.00 0.00 80 1017.1
20260506183632 23 236 0.0 0.0 0.00 0.00 0.00 80 1017.0
20260506183128 23 237 0.0 0.0 0.00 0.00 0.00 80 1017.1
20260506182625 23 235 0.0 0.0 0.00 0.00 0.00 81 1017.1
20260506182122 23 265 0.0 0.0 0.00 0.00 0.00 81 1017.1
20260506181620 23 231 0.0 0.0 0.00 0.00 0.00 80 1017.3
20260506181117 22 246 0.0 0.0 0.00 0.00 0.00 80 1017.3
20260506180614 22 306 0.0 0.0 0.00 0.00 0.00 81 1017.2
20260506180110 22 241 0.0 0.0 0.00 0.00 0.00 82 1017.2
20260506175606 21 254 0.0 0.0 0.00 0.00 0.00 83 1017.3
20260506175102 21 243 0.0 0.0 0.00 0.00 0.00 85 1017.0
20260506174602 21 246 0.0 0.0 0.00 0.00 0.00 87 1017.3
20260506174057 21 265 0.0 0.0 0.00 0.00 0.00 89 1017.2
20260506173555 20 294 0.0 0.0 0.00 0.00 0.00 88 1017.0
20260506173052 20 294 0.0 0.0 0.00 0.00 0.00 88 1016.5
20260506172549 20 286 0.0 0.0 0.00 0.00 0.00 88 1016.6
20260506172045 20 291 0.0 0.0 0.00 0.00 0.00 88 1016.6
20260506171543 20 277 0.0 0.0 0.00 0.00 0.00 88 1016.5
20260506171040 20 295 0.0 0.0 0.00 0.00 0.00 88 1016.3
20260506170537 20 289 0.0 0.0 0.00 0.00 0.00 89 1016.3